Balikesir, Turkey

12:16 AM +03 on October 19, 2017 (GMT +0300)
Balikesir Air Base

Weather History for LTBF - March, 2014

Change the Weather History Date:

Sunday, March 2, 2014

  Actual Average Record
Temperature  
Mean Temperature 52 °F -  
Max Temperature 67 °F 57 °F 73 °F (2002)
Min Temperature 38 °F 39 °F 27 °F (2013)
Degree Days  
Heating Degree Days 12    
Growing Degree Days 2 (Base 50)    
Moisture  
Dew Point 45 °F    
Average Humidity 87    
Maximum Humidity 100    
Minimum Humidity 54    
Precipitation  
Precipitation 0.28 in 0.07 in - ()
Sea Level Pressure  
Sea Level Pressure 29.64 in    
Wind  
Wind Speed 2 mph ()    
Max Wind Speed 12 mph    
Max Gust Speed -    
Visibility 3.8 miles    
Events Fog , Rain    
Averages and records for this station are not official NWS values.
T = Trace of Precipitation, MM = Missing Value Source: Averaged Metar Reports

Daily Weather History Graph

Daily Weather History Graph

Search for Another Location

Airport or City:

Trip Planner

Search our weather history database for the weather conditions in past years. The results will help you decide how hot, cold, wet, or windy it might be!

Date:

Astronomy

Mar. 02, 2014 Rise Set
Actual Time 6:40 AM EET 6:01 PM EET
Civil Twilight 6:13 AM EET 6:28 PM EET
Nautical Twilight 5:42 AM EET 6:59 PM EET
Astronomical Twilight 5:10 AM EET 7:30 PM EET
Moon 6:59 AM EET (3/2) 7:34 PM EET (3/2)
Length of Visible Light 12h 14m
Length of Day
11h 20m
New Moon, 2% of the Moon is Illuminated
Mar 2
New Moon
Mar 8
First Quarter
Mar 16
Full
Mar 24
Last Quarter
Mar 30
New

Hourly Weather History & Observations

Time (EET) Temp. Windchill Dew Point Humidity Pressure Visibility Wind Dir Wind Speed Gust Speed Precip Events Conditions
12:50 AM 46.4 °F 43.5 °F 46.4 °F 100% 29.74 in 3.7 mi North 5.8 mph - N/A Rain Light Rain Showers
1:50 AM 46.4 °F - 46.4 °F 100% 29.74 in 5.0 mi Variable 2.3 mph - N/A Rain Light Rain Showers
2:00 AM 46 °F - 46 °F 99% 29.75 in 5 mi Calm Calm - - Rain Light Rain Showers
2:50 AM 44.6 °F 43.1 °F 44.6 °F 100% 29.68 in 5.0 mi NNE 3.5 mph - N/A   Mostly Cloudy
3:50 AM 44.6 °F 42.2 °F 44.6 °F 100% 29.65 in 2.5 mi Variable 4.6 mph - N/A   Mostly Cloudy
4:50 AM 44.6 °F - 44.6 °F 100% 29.62 in 2.5 mi South 2.3 mph - N/A   Mostly Cloudy
5:00 AM 44 °F - 44 °F 100% 29.65 in 2 mi Calm Calm - -   Mist
5:50 AM 42.8 °F - 42.8 °F 100% 29.62 in 1.2 mi Variable 1.2 mph - N/A   Mostly Cloudy
6:50 AM 39.2 °F - 39.2 °F 100% 29.62 in 0.1 mi Calm Calm - N/A Fog Fog
7:50 AM 41.0 °F - 41.0 °F 100% 29.62 in 0.1 mi Calm Calm - N/A Fog Fog
8:00 AM 41 °F - 41 °F 100% 29.63 in 0 mi Calm Calm - - Fog Partial Fog
8:50 AM 44.6 °F - 44.6 °F 100% 29.59 in 1.3 mi Calm Calm - N/A   Mostly Cloudy
9:50 AM 46.4 °F - 46.4 °F 100% 29.56 in 0.5 mi Calm Calm - N/A Fog Patches of Fog
10:50 AM 48.2 °F - 48.2 °F 100% 29.56 in 1.4 mi Calm Calm - N/A   Mostly Cloudy
11:00 AM 48 °F - 48 °F 100% 29.59 in 1 mi Calm Calm - -   Mist
11:50 AM 50.0 °F - 48.2 °F 94% 29.62 in 2.5 mi Calm Calm - N/A Rain Light Rain Showers
12:00 PM 49 °F - 48 °F 97% 29.63 in 1 mi Calm Calm - -   Mist
12:50 PM 50.0 °F - 48.2 °F 94% 29.56 in 3.7 mi Calm Calm - N/A Rain Light Rain Showers
1:50 PM 53.6 °F - 51.8 °F 94% 29.59 in 3.7 mi Calm Calm - N/A   Mostly Cloudy
2:00 PM 54 °F - 52 °F 90% 29.60 in 4 mi Calm Calm - - Rain Light Rain Showers
2:50 PM 57.2 °F - 44.6 °F 63% 29.59 in 6.2 mi Variable 2.3 mph - N/A   Mostly Cloudy
3:50 PM 57.2 °F - 46.4 °F 67% 29.56 in 6.2 mi Variable 1.2 mph - N/A   Mostly Cloudy
4:50 PM 57.2 °F - 46.4 °F 67% 29.59 in 6.2 mi South 11.5 mph - N/A   Mostly Cloudy
5:00 PM 58 °F - 46 °F 54% 29.60 in 6 mi South 11.5 mph - -   Partly Cloudy
5:50 PM 57.2 °F - 46.4 °F 67% 29.59 in 6.2 mi South 4.6 mph - N/A   Mostly Cloudy
6:50 PM 55.4 °F - 44.6 °F 67% 29.62 in 6.2 mi South 5.8 mph - N/A   Mostly Cloudy
7:50 PM 53.6 °F - 44.6 °F 72% 29.65 in 6.2 mi South 5.8 mph - N/A   Mostly Cloudy
8:00 PM 54 °F - 45 °F 62% 29.68 in 6 mi South 5.8 mph - -   Partly Cloudy
8:50 PM 53.6 °F - 44.6 °F 72% 29.68 in 6.2 mi SSW 6.9 mph - N/A   Scattered Clouds
9:50 PM 51.8 °F - 42.8 °F 71% 29.68 in 6.2 mi South 4.6 mph - N/A   Scattered Clouds
10:50 PM 50.0 °F - 42.8 °F 76% 29.71 in 6.2 mi Calm Calm - N/A   Scattered Clouds
11:00 PM 50 °F - 43 °F 69% 29.72 in 6 mi Calm Calm - -   Scattered Clouds
11:50 PM 46.4 °F 44.3 °F 42.8 °F 87% 29.68 in 6.2 mi South 4.6 mph - N/A   Scattered Clouds